Location: Dalton
(34.7700°N, 84.9700°W)
Time: 21:34:26
(UTC-04:00)

ISS - Pass Details

Date: 15 October 2017
Orbit: 401 x 408 km, 51.6° (Epoch: 20 October)

Event Time Altitude Azimuth Distance (km) Brightness Sun altitude
Rises 20:09:35 0° 312° (NW) 2,322 0.8 -14.1°
Reaches altitude 10° 20:11:40 10° 312° (NW) 1,461 -0.3 -14.5°
Maximum altitude 20:14:57 85° 224° (SW) 410 -3.9 -15.2°
Enters shadow 20:16:39 26° 137° (SE) 839 -2.6 -15.5°
